"Pseudo-MPEC" for W01792

Created 2023 Dec 2 0:22:08 UT using Find_Orb

Click here for an explanation of pseudo-MPECs

 
 Astrometry: 
     W01792 * C2023 11 10IutlFq/kpK)VTQ(e6+Fqt1XTAstrometry]#'M,ww(rC(iRt9XWJO18
     W01792   C2023 11 102.RxD^xoX0'3ej-lredacted;v*CX@aEM5_+l/=U;oyynclickIXO18
     W01792   C2023 11 10XPE^o5k1O_D,Z+Q-here@forj8fSexplanation/Ao%unsDQN%iDO18

Station data:
(O18) WFST, Lenghu  (N38.607601 E93.895220).

Orbital elements:  W01792
   Perihelion 2024 May 10.11606 +/- 195 TT =  2:47:07 (JD 2460440.61606)
Epoch 2023 Nov 11.0 TT = JDT 2460259.5   Earth MOID: 0.3210   Ve: 0.0836
M 259.65918100 +/- 90               (J2000 ecliptic)             AutoNEOCP
n   0.55401392 +/- 0.313            Peri.  149.75466 +/- 60
a   1.46821253 +/- 0.552            Node    48.85577 +/- 27
e   0.5864586 +/- 0.237             Incl.   24.34777 +/- 44
P   1.78/649.79d           H 19.90  G  0.15   U 12.0  SR
q 0.60716661 +/- 0.701    Q 2.32925845 +/- 23.1
From 3 observations 2023 Nov. 10 (41.5 min); mean residual 0".00
Residuals in arcseconds: 
231110 O18  .00   .00     231110 O18  .01+  .00     231110 O18  .00   .00     

Ephemerides (geocentric):
Date (UTC) HH   RA             Dec           delta  r     elong  mag " sig PA
---- --------  ------------   ------------  ------ ------ -----  --- --------
2023 12 02 00  02 06 58.052   +15 56 35.91  .97749 1.8764 145.7 22.1  34d 102
2023 12 02 01  02 06 52.621   +15 56 39.93  .97758 1.8761 145.7 22.1  34d 102
2023 12 02 02  02 06 47.196   +15 56 43.95  .97767 1.8759 145.6 22.1  34d 102
2023 12 02 03  02 06 41.774   +15 56 47.97  .97776 1.8757 145.5 22.1  34d 102
2023 12 02 04  02 06 36.358   +15 56 52.00  .97784 1.8754 145.5 22.1  34d 102
2023 12 02 05  02 06 30.946   +15 56 56.04  .97793 1.8752 145.4 22.1  34d 102
2023 12 02 06  02 06 25.538   +15 57 00.08  .97802 1.8749 145.4 22.1  34d 102
2023 12 02 07  02 06 20.135   +15 57 04.12  .97812 1.8747 145.3 22.1  34d 102
2023 12 02 08  02 06 14.736   +15 57 08.17  .97821 1.8745 145.2 22.1  34d 102
2023 12 02 09  02 06 09.342   +15 57 12.23  .97830 1.8742 145.2 22.1  34d 102
2023 12 02 10  02 06 03.952   +15 57 16.29  .97839 1.8740 145.1 22.1  34d 102
2023 12 02 11  02 05 58.567   +15 57 20.35  .97848 1.8737 145.0 22.1  34d 102
2023 12 02 12  02 05 53.187   +15 57 24.42  .97857 1.8735 145.0 22.1  34d 102
2023 12 02 13  02 05 47.811   +15 57 28.50  .97867 1.8733 144.9 22.1  34d 102
2023 12 02 14  02 05 42.440   +15 57 32.58  .97876 1.8730 144.9 22.1  34d 102
2023 12 02 15  02 05 37.073   +15 57 36.67  .97886 1.8728 144.8 22.1  34d 102
2023 12 02 16  02 05 31.711   +15 57 40.76  .97895 1.8725 144.7 22.1  34d 102
2023 12 02 17  02 05 26.353   +15 57 44.86  .97904 1.8723 144.7 22.1  34d 102
2023 12 02 18  02 05 21.000   +15 57 48.96  .97914 1.8721 144.6 22.1  34d 102
2023 12 02 19  02 05 15.652   +15 57 53.07  .97924 1.8718 144.5 22.1  34d 102
2023 12 02 20  02 05 10.308   +15 57 57.18  .97933 1.8716 144.5 22.1  34d 102
2023 12 02 21  02 05 04.969   +15 58 01.30  .97943 1.8713 144.4 22.1  34d 102
2023 12 02 22  02 04 59.635   +15 58 05.43  .97953 1.8711 144.4 22.1  34d 102
2023 12 02 23  02 04 54.305   +15 58 09.56  .97962 1.8709 144.3 22.1  34d 102
2023 12 03 00  02 04 48.980   +15 58 13.70  .97972 1.8706 144.2 22.1  34d 102
2023 12 03 01  02 04 43.660   +15 58 17.84  .97982 1.8704 144.2 22.1  34d 102
2023 12 03 02  02 04 38.344   +15 58 21.99  .97992 1.8701 144.1 22.1  34d 102
2023 12 03 03  02 04 33.034   +15 58 26.14  .98002 1.8699 144.0 22.1  34d 102
2023 12 03 04  02 04 27.727   +15 58 30.30  .98012 1.8696 144.0 22.1  34d 102
2023 12 03 05  02 04 22.426   +15 58 34.46  .98022 1.8694 143.9 22.2  34d 102
2023 12 03 06  02 04 17.129   +15 58 38.64  .98032 1.8692 143.9 22.2  34d 102
2023 12 03 07  02 04 11.837   +15 58 42.81  .98042 1.8689 143.8 22.2  34d 102
2023 12 03 08  02 04 06.550   +15 58 47.00  .98052 1.8687 143.7 22.2  34d 102
2023 12 03 09  02 04 01.267   +15 58 51.18  .98062 1.8684 143.7 22.2  34d 102
2023 12 03 10  02 03 55.989   +15 58 55.38  .98072 1.8682 143.6 22.2  34d 102
2023 12 03 11  02 03 50.716   +15 58 59.58  .98083 1.8680 143.5 22.2  34d 102
2023 12 03 12  02 03 45.448   +15 59 03.79  .98093 1.8677 143.5 22.2  34d 102
2023 12 03 13  02 03 40.184   +15 59 08.00  .98103 1.8675 143.4 22.2  34d 102
2023 12 03 14  02 03 34.926   +15 59 12.22  .98114 1.8672 143.4 22.2  34d 102
2023 12 03 15  02 03 29.672   +15 59 16.44  .98124 1.8670 143.3 22.2  34d 102
2023 12 03 16  02 03 24.423   +15 59 20.68  .98134 1.8668 143.2 22.2  34d 102
2023 12 03 17  02 03 19.178   +15 59 24.91  .98145 1.8665 143.2 22.2  34d 102
2023 12 03 18  02 03 13.939   +15 59 29.16  .98156 1.8663 143.1 22.2  34d 102
2023 12 03 19  02 03 08.704   +15 59 33.41  .98166 1.8660 143.1 22.2  34d 102
2023 12 03 20  02 03 03.475   +15 59 37.66  .98177 1.8658 143.0 22.2  34d 102
2023 12 03 21  02 02 58.250   +15 59 41.93  .98187 1.8655 142.9 22.2  34d 102
2023 12 03 22  02 02 53.029   +15 59 46.19  .98198 1.8653 142.9 22.2  34d 102
2023 12 03 23  02 02 47.814   +15 59 50.47  .98209 1.8651 142.8 22.2  34d 102